Laramie, WY

1:32 PM MDT on October 18, 2017 (GMT -0600)
Laramie Regional

Weather History for KLAR - May, 2013

Change the Weather History Date:

Sunday, May 12, 2013

  Actual Average Record
Temperature  
Mean Temperature 53 °F 46 °F  
Max Temperature 71 °F 60 °F 81 °F (1960)
Min Temperature 34 °F 33 °F 18 °F (1983)
Degree Days  
Heating Degree Days 12 19  
Month to date heating degree days 288 246  
Since 1 July heating degree days 8228 8295  
Cooling Degree Days 0 0  
Month to date cooling degree days 0 0  
Year to date cooling degree days 0 0  
Growing Degree Days 2 (Base 50)    
Moisture  
Dew Point 31 °F    
Average Humidity 55    
Maximum Humidity 89    
Minimum Humidity 20    
Precipitation  
Precipitation 0.00 in 0.05 in 0.32 in (1980)
Month to date precipitation 0.45 0.56  
Year to date precipitation 2.43 2.82  
Sea Level Pressure  
Sea Level Pressure 30.07 in    
Wind  
Wind Speed 9 mph (WNW)    
Max Wind Speed 23 mph    
Max Gust Speed 31 mph    
Visibility 10 miles    
Events      
T = Trace of Precipitation, MM = Missing Value Source: NWS Daily Summary

Daily Weather History Graph

Daily Weather History Graph

Search for Another Location

Airport or City:

Trip Planner

Search our weather history database for the weather conditions in past years. The results will help you decide how hot, cold, wet, or windy it might be!

Date:

Astronomy

May. 12, 2013 Rise Set
Actual Time 5:46 AM MDT 8:11 PM MDT
Civil Twilight 5:15 AM MDT 8:43 PM MDT
Nautical Twilight 4:36 AM MDT 9:21 PM MDT
Astronomical Twilight 3:53 AM MDT 10:05 PM MDT
Moon 7:43 AM MDT (5/12) 10:41 PM MDT (5/12)
Length of Visible Light 15h 27m
Length of Day
14h 25m
Waxing Crescent, 7% of the Moon is Illuminated
May 12
Waxing Crescent
May 17
First Quarter
May 24
Full
May 31
Last Quarter
Jun 8
New

Hourly Weather History & Observations

Time (MDT) Temp. Windchill Dew Point Humidity Pressure Visibility Wind Dir Wind Speed Gust Speed Precip Events Conditions
12:53 AM 41.0 °F 35.8 °F 36.0 °F 82% 30.14 in 10.0 mi East 8.1 mph - N/A   Mostly Cloudy
1:53 AM 43.0 °F 41.3 °F 33.1 °F 68% 30.11 in 10.0 mi Variable 3.5 mph - N/A   Overcast
2:53 AM 42.1 °F 39.2 °F 34.0 °F 73% 30.11 in - West 4.6 mph - N/A   Overcast
3:53 AM 39.0 °F 33.4 °F 32.0 °F 76% 30.15 in - South 8.1 mph - N/A   Partly Cloudy
4:53 AM 37.9 °F 33.5 °F 32.0 °F 79% 30.14 in - ESE 5.8 mph - 0.00 in   Mostly Cloudy
5:53 AM 34.0 °F 26.6 °F 30.0 °F 85% 30.14 in - SSE 9.2 mph - N/A   Clear
6:53 AM 39.9 °F 35.8 °F 33.1 °F 77% 30.12 in - South 5.8 mph - N/A   Clear
7:53 AM 46.0 °F 43.9 °F 36.0 °F 68% 30.13 in - SSE 4.6 mph - N/A   Clear
8:53 AM 53.1 °F - 34.0 °F 48% 30.14 in 10.0 mi Calm Calm - N/A   Clear
9:53 AM 60.1 °F - 30.0 °F 32% 30.11 in 10.0 mi NNW 9.2 mph - N/A   Clear
10:53 AM 64.0 °F - 28.9 °F 27% 30.09 in 10.0 mi NW 17.3 mph 28.8 mph N/A   Clear
11:53 AM 64.9 °F - 28.9 °F 26% 30.07 in 10.0 mi NNW 11.5 mph 26.5 mph N/A   Partly Cloudy
12:53 PM 64.9 °F - 28.0 °F 25% 30.07 in 10.0 mi WNW 15.0 mph 24.2 mph N/A   Partly Cloudy
1:53 PM 68.0 °F - 30.0 °F 24% 30.04 in 10.0 mi NW 17.3 mph 27.6 mph N/A   Scattered Clouds
2:53 PM 68.0 °F - 28.0 °F 22% 30.03 in 10.0 mi NNW 13.8 mph 25.3 mph N/A   Scattered Clouds
3:53 PM 68.0 °F - 27.0 °F 21% 30.02 in 10.0 mi NW 18.4 mph 24.2 mph N/A   Clear
4:53 PM 71.1 °F - 28.0 °F 20% 30.00 in 10.0 mi NW 16.1 mph 20.7 mph N/A   Clear
5:53 PM 66.9 °F - 28.0 °F 23% 30.02 in 10.0 mi NW 10.4 mph - N/A   Partly Cloudy
6:53 PM 69.1 °F - 27.0 °F 21% 29.97 in 10.0 mi WNW 18.4 mph 24.2 mph N/A   Scattered Clouds
7:53 PM 62.1 °F - 34.0 °F 35% 29.99 in 10.0 mi NNW 8.1 mph - N/A   Mostly Cloudy
8:53 PM 55.0 °F - 33.1 °F 43% 30.00 in 10.0 mi NW 6.9 mph - N/A   Mostly Cloudy
9:53 PM 52.0 °F - 33.1 °F 49% 30.00 in 10.0 mi WSW 4.6 mph - N/A   Clear
10:53 PM 48.9 °F - 33.1 °F 54% 29.99 in 10.0 mi West 4.6 mph - N/A   Clear
11:53 PM 46.0 °F 43.9 °F 35.1 °F 66% 30.01 in 10.0 mi Variable 4.6 mph - N/A   Partly Cloudy